Vertical_Velocity
-1 -2 -2 -2 -1 -2 -0 -0 -1 -1 -1 -2 -2 -4 -1 -1 -0 -1 -3 -1 6 5 -1 -3 -4 -2 -8 -4 23 1 -0 -2 0 -0 1 2 3 4 4 3 -5 -5 6 -3 -3 2 -0
-1 -0 -0 1 0 1 2 0 2 1 1 2 3 1 1 3 -3 -6 -6 -1 1 -4 3 3 -5 -3 -8 -8 -4 -8 -1 3 1 4 -0 -1 3 -3 -4 3 -7 3 2 0 -3 2 -1
-1 -1 0 -2 -3 -2 -1 0 1 -1 -2 0 2 1 3 1 2 1 -1 0 -5 -1 0 -5 -0 -8 -9 43 -3 1 -2 -1 -1 3 4 3 -4 -1 3 4 -3 -2 -2 -4 -2 2 -3
-1 1 0 -1 -1 -2 -2 -2 -3 -1 -3 -0 1 3 5 4 4 3 2 5 -0 7 3 2 -9 -6 -11 12 -23 6 3 2 -2 -1 -0 -2 2 -3 -4 -2 -3 -2 -9 -9 14 1 3
-1 -1 1 -0 -0 -2 -0 1 1 1 1 1 1 -2 -2 -2 -8 -9 -4 -0 -1 -1 0 -4 2 -18 -2 5 2 -6 3 2 -2 -6 -2 -1 0 1 -5 -2 1 -5 -2 3 2 4 -5
2 -1 0 1 1 2 2 1 1 0 -2 -0 -1 -1 4 13 3 -2 5 -2 -1 1 -6 -9 -12 1 6 26 5 -6 -2 5 -1 2 -7 -4 -5 -1 -6 -14 -13 10 8 11 -3 3 -7
-5 -1 -3 -2 -3 -3 -4 -2 -1 -1 -1 -1 -2 -1 4 9 2 -1 10 4 -12 -8 -11 17 -10 -2 1 4 6 4 7 -6 4 -9 -0 -2 -9 -19 13 11 12 3 -10 -7 3 0 -7
-3 -3 -3 -2 0 1 1 -0 1 3 5 4 4 1 4 -2 14 10 6 3 -0 -9 -29 3 8 -18 0 7 -1 20 -3 1 -0 12 10 -17 -24 23 4 -4 -4 -5 -1 1 3 4 -10
3 -1 0 -5 -2 -3 -0 -2 -4 -1 -3 3 9 4 3 -5 18 6 6 -9 6 -3 -30 -4 8 -12 35 -12 9 16 4 15 2 0 3 -8 42 0 -2 12 -1 0 -9 10 4 -5 -10
-0 -2 -0 -0 -1 3 -2 -1 4 -2 -0 -0 -3 -3 -4 -6 18 1 5 -5 11 18 9 -25 -1 -21 -15 34 -61 38 15 17 -18 4 24 -19 26 -6 0 -7 5 -8 21 5 1 -3 -4
1 2 3 1 -1 -1 0 0 -4 -6 -3 1 4 1 -6 -32 -1 -8 19 1 12 21 2 2 54 35 43 11 49 3 49 2 -8 28 19 7 29 10 -8 17 7 16 11 7 6 -4 -7
2 -1 -4 -1 -3 -5 -2 -2 -2 -3 -3 -5 2 -1 -17 -1 4 -11 3 3 -3 1 -16 -26 7 -2 -2 33 24 14 10 18 23 -2 -9 11 8 -12 14 5 -3 10 -2 2 -1 -1 -26
-1 -2 -2 -3 -5 -4 -4 -5 -1 -4 -6 -4 11 -4 -16 -5 4 1 -2 3 5 -12 20 4 24 7 -6 -1 9 12 15 9 5 8 -36 46 6 3 12 11 1 -5 3 -3 -7 -12 -10
-2 -3 -4 -5 -6 -2 -2 -1 -3 -4 -5 -1 1 -11 16 -14 -1 5 -6 2 -6 16 2 4 11 12 5 8 -6 6 -4 -5 -4 -9 1 -6 -17 1 8 4 21 22 23 2 -3 -0 21
-1 -6 -5 -1 -4 -5 -3 -3 -5 -5 -5 -7 -6 8 -3 4 3 0 7 0 1 3 -7 -3 11 -11 29 8 4 9 -14 -7 6 11 -3 14 -9 3 -5 10 17 7 -46 61 -0 3 -2
-5 -4 1 -5 -5 -7 -6 -7 -4 -5 -6 -10 -8 10 -9 -1 3 4 4 6 -0 4 12 4 5 1 -15 27 22 15 14 1 -8 -11 7 11 5 -11 11 6 -9 -16 49 -4 -14 -15 -7
-4 1 -6 -5 -10 -6 -6 -5 -6 -3 -7 -9 0 -5 -5 -2 4 -2 2 11 3 -3 -1 4 9 -6 -2 19 -2 26 12 10 16 13 8 10 18 -5 13 -24 11 8 0 -4 13 -10 0
-3 -5 -2 -6 -3 -6 -7 -8 -6 -7 -8 -11 -10 8 -2 -10 8 -1 3 2 6 -2 -1 -1 0 -5 -4 0 -0 -2 12 9 39 11 1 -1 17 -1 1 9 10 1 -5 4 -16 -8 7
-5 -2 0 -2 -2 -7 -7 -5 -7 -8 -10 -13 -6 -6 9 -4 -4 4 5 1 -2 3 0 3 1 -6 4 -4 -11 10 -6 -3 -2 9 8 16 -20 0 -0 2 -5 -26 4 10 7 -0 -10
-2 -7 -3 -2 -6 -6 -7 -6 -4 -6 -8 -4 -4 -8 -5 -3 -4 -2 -2 6 -3 0 -9 -5 -0 0 2 4 -1 11 -7 1 20 -10 1 13 -11 7 4 22 12 -12 6 8 13 -6 10
-5 -2 -3 -4 -6 -8 -6 -8 -10 -5 -7 -8 -1 -6 -2 3 16 -0 -4 -3 -5 -3 7 -3 2 -6 -2 4 -6 -1 -1 16 7 29 9 7 -4 -4 12 2 2 -3 -1 4 -14 -4 -11
-2 -4 -2 -4 -1 -1 1 -1 -5 -7 0 -3 -4 -12 -4 -17 -1 -1 22 4 -3 0 -2 3 -2 2 -1 -0 3 5 -13 3 12 31 46 7 -9 1 -0 9 9 -2 -3 -5 -4 11 -17
-4 -1 -1 -3 -3 3 -2 1 -2 -5 -4 -9 -7 0 -1 13 0 2 10 -2 -3 -11 11 -3 -2 -4 2 -6 4 -1 -12 -15 -1 1 25 41 25 23 -9 -1 4 -3 -6 -5 4 8 7
-2 -4 -3 -4 -8 1 1 2 -0 -2 2 -2 -1 0 -6 4 -0 2 1 -2 -4 -4 -2 -1 -4 -7 -11 -2 5 -15 -4 -6 2 -9 -10 11 4 -9 6 18 -9 -10 7 14 5 7 -3
-2 -4 -4 -2 -5 -2 -5 -3 -0 -1 1 1 -0 -1 -0 -3 -2 -3 10 -3 -2 -2 -1 -3 1 -3 -8 -3 -4 -1 1 12 17 15 2 -10 0 -14 -2 5 -4 6 8 16 2 -2 1
-6 -1 -4 -4 -0 7 2 1 -2 2 0 -0 -1 3 2 3 8 -1 -3 -3 -7 -0 3 2 1 -4 -2 -2 -9 -9 -14 -15 16 0 -2 -2 17 15 7 10 8 31 13 3 -5 -19 6
-2 -4 -4 -2 -2 2 -3 -3 1 -2 4 4 -8 4 -1 -2 13 1 -6 1 -5 -6 1 -4 -1 1 -6 0 -5 -3 -5 -6 -9 -6 2 6 -5 -10 10 -1 3 7 10 8 1 3 -6
-3 -4 -6 -3 -3 -1 -1 -4 -1 2 -2 0 -2 0 -6 -1 10 1 -3 -1 4 -5 -1 2 -3 4 0 -1 -9 -14 -5 1 3 2 0 -9 -6 9 3 0 5 5 3 5 -0 -1 4
-1 -4 -3 -4 -7 -3 -4 -2 -3 -3 -1 1 2 2 3 -2 -3 2 -1 1 -9 -9 -3 8 0 -4 -3 2 -0 -5 -6 -3 -1 8 9 18 8 10 2 10 12 -9 9 -0 -7 -4 -4
Height
5829 5825 5821 5816 5812 5808 5804 5800 5796 5792 5788 5785 5781 5778 5775 5771 5768 5767 5764 5762 5760 5757 5757 5756 5756 5755 5755 5755 5762 5757 5754 5755 5756 5754 5756 5757 5757 5757 5759 5759 5760 5763 5768 5768 5770 5772 5773
5824 5820 5816 5812 5808 5804 5799 5794 5790 5787 5783 5779 5775 5771 5767 5762 5760 5757 5754 5752 5750 5750 5749 5747 5746 5747 5747 5751 5752 5748 5749 5748 5748 5750 5749 5749 5751 5750 5751 5755 5754 5756 5759 5761 5763 5766 5767
5821 5816 5811 5806 5801 5796 5792 5787 5782 5777 5773 5768 5764 5760 5756 5753 5749 5746 5744 5742 5739 5738 5736 5737 5735 5735 5736 5749 5743 5740 5740 5741 5740 5742 5743 5742 5741 5743 5745 5747 5748 5750 5752 5755 5758 5761 5761
5815 5810 5805 5800 5794 5788 5783 5778 5773 5767 5762 5757 5753 5748 5744 5740 5737 5733 5730 5728 5726 5724 5720 5721 5722 5722 5724 5734 5728 5734 5731 5731 5732 5732 5732 5733 5734 5733 5736 5739 5740 5742 5745 5748 5754 5753 5755
5809 5803 5797 5791 5785 5779 5773 5768 5762 5755 5750 5744 5738 5733 5729 5725 5721 5718 5715 5714 5713 5712 5709 5706 5707 5706 5714 5719 5719 5717 5720 5720 5719 5720 5721 5721 5724 5725 5725 5728 5731 5734 5738 5741 5744 5745 5745
5802 5796 5790 5783 5777 5770 5763 5756 5749 5742 5735 5728 5722 5716 5711 5706 5701 5697 5695 5694 5692 5691 5691 5690 5688 5690 5698 5704 5703 5704 5705 5706 5705 5706 5707 5710 5711 5712 5715 5717 5722 5731 5731 5731 5733 5736 5733
5796 5788 5781 5773 5766 5759 5752 5745 5738 5730 5722 5714 5707 5699 5693 5687 5681 5674 5673 5669 5667 5664 5665 5673 5673 5674 5677 5680 5683 5686 5686 5688 5689 5691 5692 5698 5693 5698 5713 5717 5720 5716 5715 5719 5725 5725 5724
5785 5777 5771 5763 5756 5750 5743 5733 5725 5716 5707 5698 5689 5681 5673 5666 5660 5652 5646 5641 5637 5632 5636 5647 5651 5654 5659 5659 5663 5667 5667 5669 5672 5678 5680 5677 5673 5697 5702 5700 5702 5704 5705 5710 5715 5715 5712
5776 5770 5763 5756 5749 5740 5730 5720 5709 5699 5690 5680 5670 5660 5652 5644 5635 5622 5612 5607 5604 5594 5596 5623 5630 5632 5638 5634 5640 5647 5649 5651 5653 5658 5662 5661 5677 5682 5683 5685 5688 5693 5694 5702 5704 5703 5700
5769 5760 5753 5746 5736 5726 5715 5705 5694 5683 5672 5661 5649 5637 5626 5618 5609 5590 5575 5571 5570 5556 5542 5582 5595 5604 5604 5611 5607 5623 5630 5633 5631 5639 5646 5643 5657 5662 5664 5668 5677 5679 5689 5690 5691 5690 5689
5760 5751 5744 5736 5725 5712 5700 5688 5676 5665 5652 5640 5627 5612 5598 5574 5569 5556 5543 5529 5530 5528 5513 5546 5551 5548 5568 5575 5592 5597 5604 5607 5617 5620 5623 5633 5642 5646 5650 5663 5667 5671 5677 5675 5677 5676 5677
5752 5744 5734 5720 5709 5698 5686 5673 5660 5647 5631 5615 5598 5577 5562 5544 5521 5515 5511 5507 5504 5504 5498 5522 5532 5536 5537 5542 5555 5565 5573 5584 5596 5596 5603 5614 5620 5628 5637 5642 5649 5654 5658 5661 5662 5662 5654
5742 5731 5719 5708 5696 5682 5668 5655 5641 5625 5608 5589 5567 5545 5527 5505 5503 5494 5490 5487 5487 5485 5494 5504 5505 5501 5505 5521 5534 5541 5546 5555 5567 5576 5584 5599 5599 5610 5619 5623 5632 5635 5644 5646 5647 5644 5639
5729 5719 5708 5694 5681 5667 5653 5638 5622 5605 5585 5562 5538 5521 5500 5486 5481 5476 5473 5474 5472 5478 5479 5478 5482 5484 5487 5502 5515 5524 5530 5539 5549 5559 5570 5574 5584 5598 5606 5612 5621 5625 5631 5637 5635 5636 5640
5719 5707 5693 5680 5666 5651 5637 5619 5601 5581 5557 5531 5513 5500 5478 5476 5470 5466 5464 5464 5465 5468 5468 5466 5470 5471 5481 5491 5497 5504 5511 5522 5536 5548 5556 5562 5567 5578 5586 5594 5603 5609 5610 5627 5626 5624 5624
5709 5695 5680 5665 5650 5635 5619 5601 5581 5559 5532 5509 5491 5482 5468 5468 5463 5459 5458 5458 5458 5460 5459 5460 5460 5463 5472 5479 5480 5489 5498 5513 5522 5533 5542 5549 5553 5559 5570 5576 5583 5593 5605 5604 5610 5608 5609
5696 5680 5666 5652 5637 5619 5603 5583 5561 5535 5512 5491 5478 5473 5465 5464 5459 5454 5452 5453 5452 5452 5451 5453 5454 5455 5458 5458 5463 5475 5485 5498 5509 5521 5530 5537 5538 5546 5552 5560 5573 5580 5581 5589 5596 5597 5601
5686 5673 5656 5640 5621 5604 5585 5563 5537 5514 5495 5477 5468 5465 5463 5459 5459 5453 5451 5449 5447 5446 5447 5447 5449 5448 5450 5453 5458 5465 5478 5487 5492 5500 5510 5525 5531 5528 5539 5548 5557 5564 5571 5575 5579 5587 5591
5677 5660 5643 5626 5609 5590 5568 5545 5521 5500 5482 5466 5460 5458 5459 5455 5452 5452 5450 5446 5444 5442 5442 5443 5444 5445 5445 5445 5453 5458 5463 5467 5476 5488 5498 5510 5507 5516 5524 5534 5542 5550 5561 5565 5568 5571 5576
5664 5649 5633 5613 5595 5576 5553 5530 5511 5496 5478 5465 5457 5453 5454 5451 5449 5447 5445 5444 5440 5437 5434 5435 5436 5437 5438 5441 5442 5448 5456 5468 5466 5474 5485 5490 5498 5509 5520 5526 5532 5540 5550 5557 5559 5561 5573
5657 5640 5622 5605 5585 5563 5540 5521 5505 5492 5478 5463 5457 5453 5449 5448 5447 5443 5440 5438 5434 5431 5428 5426 5429 5429 5431 5433 5434 5438 5448 5454 5457 5463 5473 5479 5488 5502 5509 5515 5522 5530 5538 5543 5544 5557 5554
5648 5631 5613 5595 5574 5551 5532 5515 5500 5488 5480 5468 5455 5449 5447 5443 5443 5440 5437 5435 5431 5426 5421 5420 5419 5422 5424 5425 5427 5434 5437 5443 5448 5459 5463 5472 5483 5492 5498 5503 5512 5520 5525 5532 5539 5547 5543
5639 5621 5605 5585 5563 5544 5528 5513 5499 5486 5474 5464 5456 5449 5442 5442 5439 5435 5432 5430 5427 5422 5420 5415 5412 5412 5416 5418 5422 5426 5431 5439 5442 5447 5453 5463 5474 5482 5488 5496 5502 5508 5520 5523 5529 5534 5539
5630 5614 5595 5575 5556 5539 5525 5512 5500 5488 5475 5463 5451 5445 5439 5437 5435 5430 5429 5426 5423 5420 5413 5410 5407 5404 5408 5412 5419 5423 5428 5431 5437 5442 5448 5456 5464 5467 5478 5484 5487 5503 5510 5515 5519 5523 5527
5623 5605 5586 5568 5550 5534 5521 5509 5498 5487 5477 5465 5452 5442 5435 5432 5430 5427 5424 5423 5421 5417 5410 5404 5404 5401 5402 5407 5413 5419 5423 5427 5431 5437 5441 5448 5456 5464 5469 5475 5484 5492 5501 5506 5507 5516 5517
5614 5596 5579 5562 5544 5530 5517 5506 5496 5485 5475 5463 5451 5439 5429 5427 5427 5424 5422 5419 5416 5415 5411 5406 5402 5398 5398 5403 5409 5415 5416 5418 5424 5429 5437 5446 5450 5457 5464 5467 5475 5488 5489 5492 5494 5505 5506
5606 5590 5573 5555 5539 5527 5515 5505 5494 5484 5473 5461 5449 5437 5426 5421 5422 5420 5417 5416 5414 5411 5408 5402 5399 5397 5393 5397 5404 5410 5414 5419 5424 5429 5433 5437 5440 5443 5447 5455 5462 5468 5470 5477 5481 5488 5489
5598 5582 5565 5548 5534 5523 5512 5502 5492 5482 5470 5460 5447 5434 5422 5417 5418 5417 5415 5413 5411 5408 5406 5401 5397 5394 5394 5395 5398 5404 5411 5416 5420 5425 5430 5435 5436 5437 5442 5450 5455 5457 5460 5467 5470 5474 5481
5592 5577 5558 5542 5530 5520 5508 5499 5490 5480 5469 5459 5448 5435 5422 5413 5416 5415 5413 5411 5410 5406 5404 5401 5397 5393 5392 5394 5395 5401 5407 5413 5416 5419 5420 5426 5425 5424 5435 5439 5439 5445 5450 5454 5458 5465 5469